User: anonymous   Login
Location: Nairn
(57.5833°N, 3.8667°W)
Time: 06:55:22
(UTC+00:00)
Language:

Resurs 1-4 Rocket - Orbit

View from above orbital plane
View from above orbital plane
View from above satellite
View from above satellite

Ground track
Ground track

The orbit data is extracted from the following two-line orbital elements,

1 25400U 98043G   20293.39353854 -.00000004 +00000-0 +16859-4 0  9999
2 25400 098.6149 227.0716 0009554 340.3202 019.7608 14.25462426158902
Epoch (UTC): 19 October 2020 09:26:41
Eccentricity: 0.0009554
inclination: 98.6149°
perigee height: 800 km
apogee height: 814 km
right ascension of ascending node: 227.0716°
argument of perigee: 340.3202°
revolutions per day: 14.25462426
mean anomaly at epoch: 19.7608°
orbit number at epoch: 15890

The dashed part of the orbit path shows where the satellite is in the earth's shadow,  

DLR